User: anonymous   Login
Location: STAR School
(35.3054°N, 111.2976°W)
Time: 07:33:12
(UTC-07:00)
Language:

NUDT-PHONESAT - Orbit

View from above orbital plane
View from above orbital plane
View from above satellite
View from above satellite

Ground track
Ground track

The orbit data is extracted from the following two-line orbital elements,

1 40900U 15049B   19115.09004765  .00001915  00000-0  85397-4 0  9992
2 40900  97.4390 124.9679 0013670  25.5479  17.4268 15.22557488199356
Epoch (UTC): 25 April 2019 02:09:40
Eccentricity: 0.0013670
inclination: 97.4390°
perigee height: 489 km
apogee height: 507 km
right ascension of ascending node: 124.9679°
argument of perigee: 25.5479°
revolutions per day: 15.22557488
mean anomaly at epoch: 17.4268°
orbit number at epoch: 19935

The dashed part of the orbit path shows where the satellite is in the earth's shadow,  

DLR